User: anonymous   Login
Location: Unspecified
(0.0000°N, 0.0000°E)
Time: 03:31:58
(UTC+00:00)
Language:

NOAA 17 - Orbit

View from above orbital plane
View from above orbital plane
View from above satellite
View from above satellite

Ground track
Ground track

The orbit data is extracted from the following two-line orbital elements,

1 27453U 02032A   14297.48108600  .00000251  00000-0  12519-3 0  7793
2 27453 098.3226 290.4359 0012530 150.5318 209.6571 14.24797471641095
Epoch (UTC): 24 October 2014 11:32:45
Eccentricity: 0.0012530
inclination: 98.3226°
perigee height: 800 km
apogee height: 818 km
right ascension of ascending node: 290.4359°
argument of perigee: 150.5318°
revolutions per day: 14.24797471
mean anomaly at epoch: 209.6571°
orbit number at epoch: 64109

The dashed part of the orbit path shows where the satellite is in the earth's shadow,  

DLR